Regional Weather Roundup
Issued by NWS

Home | Current Version | Previous Version | Text Only | Print | Product List | Glossary On
Versions: 1 2 3 4 5 6 7 8 9 10 11 12 13 14 15 16 17 18 19 20 21 22 23 24 25 26 27 28 29 30 31 32 33 34 35 36 37 38 39 40 41 42 43 44 45 46 47 48 49 50
000
ASUS43 KTOP 291059
RWRKS

WEATHER ROUNDUP FOR KANSAS
NATIONAL WEATHER SERVICE GOODLAND KS
600 AM CDT FRI AUG 29 2014

NOTE:  "FAIR" INDICATES FEW OR NO CLOUDS BELOW 12,000 FEET WITH NO
SIGNIFICANT WEATHER AND/OR OBSTRUCTIONS TO VISIBILITY.

KSZ001>006-013>018-027>032-041>047-291200-
NORTHWEST KANSAS

CITY           SKY/WX    TMP DP  RH WIND       PRES   REMARKS
GOODLAND       CLEAR     55  53  93 W8        29.97S
HAYS           CLOUDY    63  57  82 W8        29.88S
HILL CITY      CLOUDY    63  58  83 W5        29.88R
RUSSELL        CLOUDY    65  62  90 SW7       29.84F
$$

KSZ061>065-074>080-084>089-291200-
SOUTHWEST KANSAS

CITY           SKY/WX    TMP DP  RH WIND       PRES   REMARKS
DODGE CITY     CLEAR     63  58  83 W9        29.92S
ELKHART          N/A     59  51  75 W6          N/A
GARDEN CITY    CLEAR     58  56  93 W7        29.95S
GREAT BEND     CLOUDY    64  61  88 SW6       29.87R
LIBERAL        CLEAR     61  55  82 W6        29.98S
$$

KSZ066>073-081>083-090>101-291200-
SOUTHEAST KANSAS

CITY           SKY/WX    TMP DP  RH WIND       PRES   REMARKS
CHANUTE        MOCLDY    71  63  75 SE3       29.86S
COFFEYVILLE    MOCLDY    73  66  78 S7        29.86R
HUTCHINSON     CLOUDY    68  62  81 S8        29.86R
NEWTON         CLOUDY    66  59  77 S5        29.90R
PARSONS        CLOUDY    75  65  70 S6        29.88R
WICHITA INTL   LGT RAIN  68  65  90 S6        29.87R
WICHITA JABRA  LGT RAIN  68  65  90 S5        29.87R
WICHITA MCCONL CLOUDY    68  68 100 S5        29.87R
WINFIELD       LGT RAIN  69  68  96 CALM      29.88R
$$

KSZ007>012-019>026-033>040-048>060-102>105-291200-
NORTHEAST KANSAS

CITY           SKY/WX    TMP DP  RH WIND       PRES   REMARKS
CONCORDIA      CLOUDY    67  64  90 W15G22    29.79S
EMPORIA        MOCLDY    69  63  81 SE7       29.85F
LAWRENCE       CLOUDY    71  65  81 S3        29.86S
MANHATTAN      MOCLDY    69  64  84 CALM      29.81F
OLATHE IND     MOCLDY    71  65  81 S5        29.87S
OLATHE EXE     MOCLDY    69  64  84 SE6       29.86S
SALINA         LGT RAIN  69  64  84 W3        29.86R
TOPEKA BILLARD PTCLDY    72  67  84 SE5       29.85S
TOPEKA FORBES  MOCLDY    71  65  81 SE5       29.85F
$$


USA.gov is the U.S. government's official web portal to all federal, state and local government web resources and services.